Time,TemperatureF,DewpointF,PressureIn,WindDirection,WindDirectionDegrees,WindSpeedMPH,WindSpeedGustMPH,Humidity,HourlyPrecipIn,Conditions,Clouds,dailyrainin,SoftwareType,DateUTC
2013-03-12 00:01:00,48.0,25.0,30.10,WSW,248,0.0,0.0,41,0.00,,,0.00,,2013-03-12 07:01:00,
2013-03-12 00:12:00,48.0,25.0,30.10,WSW,248,0.0,0.0,41,0.00,,,0.00,,2013-03-12 07:12:00,
2013-03-12 00:21:00,47.0,27.0,30.08,WSW,248,0.0,2.0,45,0.00,,,0.00,,2013-03-12 07:21:00,
2013-03-12 00:32:00,45.0,27.0,30.08,WSW,248,0.0,2.0,49,0.00,,,0.00,,2013-03-12 07:32:00,
2013-03-12 00:52:00,45.0,26.0,30.08,WSW,248,0.0,3.0,47,0.00,,,0.00,,2013-03-12 07:52:00,
2013-03-12 01:01:00,46.0,25.0,30.11,SSW,193,0.0,3.0,43,0.00,,,0.00,,2013-03-12 08:01:00,
2013-03-12 01:22:00,47.0,24.0,30.10,SSW,193,0.0,3.0,40,0.00,,,0.00,,2013-03-12 08:22:00,
2013-03-12 01:32:00,47.0,24.0,30.10,SSW,193,0.0,2.0,40,0.00,,,0.00,,2013-03-12 08:32:00,
2013-03-12 01:41:00,47.0,24.0,30.10,SSW,193,0.0,2.0,40,0.00,,,0.00,,2013-03-12 08:41:00,
2013-03-12 01:52:00,45.0,24.0,30.09,SSW,193,0.0,2.0,43,0.00,,,0.00,,2013-03-12 08:52:00,
2013-03-12 02:02:00,46.0,24.0,30.09,SSW,193,0.0,1.0,42,0.00,,,0.00,,2013-03-12 09:02:00,
2013-03-12 02:11:00,46.0,24.0,30.09,SSW,193,0.0,1.0,42,0.00,,,0.00,,2013-03-12 09:11:00,
2013-03-12 02:22:00,45.0,24.0,30.10,SSW,193,0.0,0.0,43,0.00,,,0.00,,2013-03-12 09:22:00,
2013-03-12 02:32:00,45.0,23.0,30.09,SSW,193,0.0,0.0,42,0.00,,,0.00,,2013-03-12 09:32:00,
2013-03-12 02:42:00,45.0,23.0,30.09,SSW,193,0.0,0.0,42,0.00,,,0.00,,2013-03-12 09:42:00,
2013-03-12 02:52:00,44.0,23.0,30.09,SSW,193,0.0,0.0,43,0.00,,,0.00,,2013-03-12 09:52:00,
2013-03-12 03:01:00,45.0,24.0,30.09,SSW,193,0.0,2.0,43,0.00,,,0.00,,2013-03-12 10:01:00,
2013-03-12 03:11:00,45.0,24.0,30.09,SSW,193,0.0,2.0,43,0.00,,,0.00,,2013-03-12 10:11:00,
2013-03-12 03:22:00,44.0,23.0,30.08,SSW,193,0.0,0.0,44,0.00,,,0.00,,2013-03-12 10:22:00,
2013-03-12 03:32:00,44.0,23.0,30.08,SSW,193,0.0,1.0,44,0.00,,,0.00,,2013-03-12 10:32:00,
2013-03-12 03:41:00,44.0,23.0,30.08,SSW,193,0.0,1.0,44,0.00,,,0.00,,2013-03-12 10:41:00,
2013-03-12 03:52:00,43.0,24.0,30.08,SSW,193,2.0,3.0,46,0.00,,,0.00,,2013-03-12 10:52:00,
2013-03-12 04:01:00,44.0,21.0,30.06,SSW,193,0.0,1.0,40,0.00,,,0.00,,2013-03-12 11:01:00,
2013-03-12 04:11:00,44.0,21.0,30.06,SSW,193,0.0,1.0,40,0.00,,,0.00,,2013-03-12 11:11:00,
2013-03-12 04:22:00,45.0,21.0,30.06,SSW,193,0.0,2.0,38,0.00,,,0.00,,2013-03-12 11:22:00,
2013-03-12 04:31:00,44.0,21.0,30.06,SSW,193,0.0,0.0,40,0.00,,,0.00,,2013-03-12 11:31:00,
2013-03-12 04:42:00,44.0,21.0,30.06,SSW,193,0.0,0.0,40,0.00,,,0.00,,2013-03-12 11:42:00,
2013-03-12 04:52:00,43.0,20.0,30.06,SSW,193,0.0,0.0,40,0.00,,,0.00,,2013-03-12 11:52:00,
2013-03-12 05:02:00,43.0,20.0,30.07,SSW,193,0.0,1.0,40,0.00,,,0.00,,2013-03-12 12:02:00,
2013-03-12 05:12:00,43.0,20.0,30.07,SSW,193,0.0,1.0,40,0.00,,,0.00,,2013-03-12 12:12:00,
2013-03-12 05:22:00,43.0,21.0,30.07,SSW,193,0.0,0.0,41,0.00,,,0.00,,2013-03-12 12:22:00,
2013-03-12 05:31:00,43.0,21.0,30.09,SSW,193,0.0,0.0,41,0.00,,,0.00,,2013-03-12 12:31:00,
2013-03-12 05:41:00,43.0,21.0,30.09,SSW,193,0.0,0.0,41,0.00,,,0.00,,2013-03-12 12:41:00,
2013-03-12 05:52:00,43.0,20.0,30.09,SSW,193,1.0,2.0,39,0.00,,,0.00,,2013-03-12 12:52:00,
2013-03-12 06:01:00,44.0,20.0,30.08,SSW,193,0.0,0.0,38,0.00,,,0.00,,2013-03-12 13:01:00,
2013-03-12 06:11:00,44.0,20.0,30.08,SSW,193,0.0,0.0,38,0.00,,,0.00,,2013-03-12 13:11:00,
2013-03-12 06:21:00,43.0,20.0,30.09,SSW,193,0.0,0.0,40,0.00,,,0.00,,2013-03-12 13:21:00,
2013-03-12 06:32:00,43.0,20.0,30.03,SSW,193,0.0,0.0,40,0.00,,,0.00,,2013-03-12 13:32:00,
2013-03-12 06:42:00,43.0,20.0,30.03,SSW,193,0.0,0.0,40,0.00,,,0.00,,2013-03-12 13:42:00,
2013-03-12 06:52:00,42.0,20.0,30.06,SSW,193,0.0,0.0,41,0.00,,,0.00,,2013-03-12 13:52:00,
2013-03-12 07:01:00,42.0,20.0,30.06,SSW,193,0.0,0.0,41,0.00,,,0.00,,2013-03-12 14:01:00,
2013-03-12 07:11:00,42.0,20.0,30.06,SSW,193,0.0,0.0,41,0.00,,,0.00,,2013-03-12 14:11:00,
2013-03-12 07:21:00,42.0,21.0,30.07,SSW,193,0.0,0.0,42,0.00,,,0.00,,2013-03-12 14:21:00,
2013-03-12 07:32:00,43.0,20.0,30.07,SSW,193,0.0,2.0,39,0.00,,,0.00,,2013-03-12 14:32:00,
2013-03-12 07:42:00,43.0,20.0,30.07,SSW,193,0.0,2.0,39,0.00,,,0.00,,2013-03-12 14:42:00,
2013-03-12 07:53:00,43.0,20.0,30.09,SSW,193,0.0,0.0,39,0.00,,,0.00,,2013-03-12 14:53:00,
2013-03-12 08:01:00,44.0,20.0,30.10,SSE,160,0.0,1.0,38,0.00,,,0.00,,2013-03-12 15:01:00,
2013-03-12 08:11:00,44.0,20.0,30.10,SSE,160,0.0,1.0,38,0.00,,,0.00,,2013-03-12 15:11:00,
2013-03-12 08:22:00,45.0,23.0,30.12,SSE,160,0.0,1.0,41,0.00,,,0.00,,2013-03-12 15:22:00,
2013-03-12 08:31:00,48.0,25.0,30.10,SSE,160,0.0,2.0,40,0.00,,,0.00,,2013-03-12 15:31:00,
2013-03-12 08:41:00,48.0,25.0,30.10,SSE,160,0.0,2.0,40,0.00,,,0.00,,2013-03-12 15:41:00,
2013-03-12 08:53:00,52.0,22.0,30.12,SSE,148,1.0,3.0,31,0.00,,,0.00,,2013-03-12 15:53:00,
2013-03-12 09:01:00,55.0,23.0,30.12,NNW,348,4.0,6.0,29,0.00,,,0.00,,2013-03-12 16:01:00,
2013-03-12 09:11:00,55.0,23.0,30.12,NNW,348,4.0,6.0,29,0.00,,,0.00,,2013-03-12 16:11:00,
2013-03-12 09:22:00,56.0,23.0,30.12,NNE,22,5.0,8.0,28,0.00,,,0.00,,2013-03-12 16:22:00,
2013-03-12 09:32:00,58.0,22.0,30.12,NE,44,9.0,12.0,25,0.00,,,0.00,,2013-03-12 16:32:00,
2013-03-12 09:42:00,58.0,22.0,30.12,NE,44,9.0,12.0,25,0.00,,,0.00,,2013-03-12 16:42:00,
2013-03-12 09:52:00,58.0,23.0,30.12,NE,39,6.0,14.0,26,0.00,,,0.00,,2013-03-12 16:52:00,
2013-03-12 10:02:00,60.0,24.0,30.15,North,5,7.0,11.0,25,0.00,,,0.00,,2013-03-12 17:02:00,
2013-03-12 10:12:00,60.0,24.0,30.15,North,5,7.0,11.0,25,0.00,,,0.00,,2013-03-12 17:12:00,
2013-03-12 10:21:00,60.0,23.0,30.15,North,360,8.0,14.0,24,0.00,,,0.00,,2013-03-12 17:21:00,
2013-03-12 10:32:00,61.0,22.0,30.15,NE,53,6.0,11.0,22,0.00,,,0.00,,2013-03-12 17:32:00,
2013-03-12 10:42:00,61.0,22.0,30.15,NE,53,6.0,11.0,22,0.00,,,0.00,,2013-03-12 17:42:00,
2013-03-12 10:53:00,61.0,22.0,30.15,NE,44,7.0,14.0,22,0.00,,,0.00,,2013-03-12 17:53:00,
2013-03-12 11:02:00,62.0,23.0,30.16,NE,34,8.0,14.0,22,0.00,,,0.00,,2013-03-12 18:02:00,
2013-03-12 11:12:00,63.0,24.0,30.15,North,5,5.0,12.0,22,0.00,,,0.00,,2013-03-12 18:12:00,
2013-03-12 11:22:00,63.0,24.0,30.15,North,5,5.0,12.0,22,0.00,,,0.00,,2013-03-12 18:22:00,
2013-03-12 11:32:00,64.0,22.0,30.15,NNE,26,7.0,13.0,20,0.00,,,0.00,,2013-03-12 18:32:00,
2013-03-12 11:42:00,64.0,22.0,30.15,NNE,26,7.0,13.0,20,0.00,,,0.00,,2013-03-12 18:42:00,
2013-03-12 11:53:00,65.0,22.0,30.16,North,9,11.0,15.0,19,0.00,,,0.00,,2013-03-12 18:53:00,
2013-03-12 12:02:00,66.0,23.0,30.15,NE,34,7.0,15.0,19,0.00,,,0.00,,2013-03-12 19:02:00,
2013-03-12 12:12:00,66.0,23.0,30.15,NE,34,7.0,15.0,19,0.00,,,0.00,,2013-03-12 19:12:00,
2013-03-12 12:22:00,66.0,19.0,30.15,NE,52,6.0,12.0,16,0.00,,,0.00,,2013-03-12 19:22:00,
2013-03-12 12:32:00,66.0,20.0,30.15,ENE,67,8.0,15.0,17,0.00,,,0.00,,2013-03-12 19:32:00,
2013-03-12 12:43:00,66.0,20.0,30.15,ENE,67,8.0,15.0,17,0.00,,,0.00,,2013-03-12 19:43:00,
2013-03-12 12:53:00,67.0,19.0,30.13,NE,51,5.0,13.0,16,0.00,,,0.00,,2013-03-12 19:53:00,
2013-03-12 13:01:00,68.0,19.0,30.13,NNE,33,5.0,15.0,15,0.00,,,0.00,,2013-03-12 20:01:00,
2013-03-12 13:11:00,68.0,19.0,30.13,NNE,33,5.0,15.0,15,0.00,,,0.00,,2013-03-12 20:11:00,
2013-03-12 13:22:00,68.0,19.0,30.13,NE,55,7.0,14.0,15,0.00,,,0.00,,2013-03-12 20:22:00,
2013-03-12 13:32:00,69.0,19.0,30.12,NE,36,9.0,15.0,15,0.00,,,0.00,,2013-03-12 20:32:00,
2013-03-12 13:42:00,69.0,19.0,30.12,NE,36,9.0,15.0,15,0.00,,,0.00,,2013-03-12 20:42:00,
2013-03-12 13:53:00,69.0,18.0,30.12,NNE,25,8.0,16.0,14,0.00,,,0.00,,2013-03-12 20:53:00,
2013-03-12 14:02:00,69.0,19.0,30.12,NE,36,5.0,13.0,15,0.00,,,0.00,,2013-03-12 21:02:00,
2013-03-12 14:11:00,69.0,19.0,30.12,NE,36,5.0,13.0,15,0.00,,,0.00,,2013-03-12 21:11:00,
2013-03-12 14:22:00,70.0,17.0,30.11,NNE,25,9.0,18.0,13,0.00,,,0.00,,2013-03-12 21:22:00,
2013-03-12 14:32:00,71.0,19.0,30.11,NNE,30,4.0,13.0,14,0.00,,,0.00,,2013-03-12 21:32:00,
2013-03-12 14:42:00,71.0,19.0,30.11,NNE,30,4.0,13.0,14,0.00,,,0.00,,2013-03-12 21:42:00,
2013-03-12 14:52:00,71.0,19.0,30.09,NE,49,8.0,13.0,14,0.00,,,0.00,,2013-03-12 21:52:00,
2013-03-12 15:01:00,72.0,20.0,30.10,ENE,58,6.0,15.0,14,0.00,,,0.00,,2013-03-12 22:01:00,
2013-03-12 15:12:00,72.0,20.0,30.10,ENE,58,6.0,15.0,14,0.00,,,0.00,,2013-03-12 22:12:00,
2013-03-12 15:22:00,72.0,18.0,30.09,North,5,6.0,12.0,13,0.00,,,0.00,,2013-03-12 22:22:00,
2013-03-12 15:32:00,72.0,18.0,30.08,ENE,69,3.0,12.0,13,0.00,,,0.00,,2013-03-12 22:32:00,
2013-03-12 15:42:00,72.0,18.0,30.08,ENE,69,3.0,12.0,13,0.00,,,0.00,,2013-03-12 22:42:00,
2013-03-12 15:53:00,72.0,22.0,30.08,ENE,65,2.0,13.0,15,0.00,,,0.00,,2013-03-12 22:53:00,
2013-03-12 16:02:00,73.0,21.0,30.10,NNE,25,5.0,10.0,14,0.00,,,0.00,,2013-03-12 23:02:00,
2013-03-12 16:11:00,73.0,21.0,30.10,NNE,25,5.0,10.0,14,0.00,,,0.00,,2013-03-12 23:11:00,
2013-03-12 16:22:00,73.0,19.0,30.09,NNE,12,8.0,13.0,13,0.00,,,0.00,,2013-03-12 23:22:00,
2013-03-12 16:33:00,73.0,17.0,30.06,NNE,26,3.0,12.0,12,0.00,,,0.00,,2013-03-12 23:33:00,
2013-03-12 16:42:00,73.0,17.0,30.06,NNE,26,3.0,12.0,12,0.00,,,0.00,,2013-03-12 23:42:00,
2013-03-12 16:52:00,73.0,19.0,30.07,ENE,69,4.0,7.0,13,0.00,,,0.00,,2013-03-12 23:52:00,
2013-03-12 17:02:00,73.0,17.0,30.07,ENE,59,3.0,10.0,12,0.00,,,0.00,,2013-03-13 00:02:00,
2013-03-12 17:11:00,73.0,17.0,30.07,ENE,59,3.0,10.0,12,0.00,,,0.00,,2013-03-13 00:11:00,
2013-03-12 17:22:00,73.0,19.0,30.07,NNE,28,2.0,12.0,13,0.00,,,0.00,,2013-03-13 00:22:00,
2013-03-12 17:32:00,73.0,17.0,30.06,NE,37,4.0,10.0,12,0.00,,,0.00,,2013-03-13 00:32:00,
2013-03-12 17:41:00,73.0,17.0,30.06,NE,37,4.0,10.0,12,0.00,,,0.00,,2013-03-13 00:41:00,
2013-03-12 17:53:00,73.0,19.0,30.06,NNE,14,3.0,8.0,13,0.00,,,0.00,,2013-03-13 00:53:00,
2013-03-12 18:02:00,73.0,19.0,30.06,North,5,4.0,7.0,13,0.00,,,0.00,,2013-03-13 01:02:00,
2013-03-12 18:12:00,73.0,19.0,30.06,North,5,4.0,7.0,13,0.00,,,0.00,,2013-03-13 01:12:00,
2013-03-12 18:21:00,72.0,18.0,30.07,NNE,13,2.0,5.0,13,0.00,,,0.00,,2013-03-13 01:21:00,
2013-03-12 18:31:00,72.0,18.0,30.07,NNE,15,1.0,4.0,13,0.00,,,0.00,,2013-03-13 01:31:00,
2013-03-12 18:42:00,72.0,18.0,30.07,NNE,15,1.0,4.0,13,0.00,,,0.00,,2013-03-13 01:42:00,
2013-03-12 18:52:00,71.0,18.0,30.07,NNE,15,0.0,0.0,13,0.00,,,0.00,,2013-03-13 01:52:00,
2013-03-12 19:02:00,68.0,19.0,30.08,NNE,15,0.0,2.0,15,0.00,,,0.00,,2013-03-13 02:02:00,
2013-03-12 19:21:00,67.0,19.0,30.06,NNE,15,0.0,0.0,16,0.00,,,0.00,,2013-03-13 02:21:00,
2013-03-12 19:31:00,65.0,19.0,30.11,NNE,15,0.0,2.0,17,0.00,,,0.00,,2013-03-13 02:31:00,
2013-03-12 19:42:00,65.0,19.0,30.11,NNE,15,0.0,2.0,17,0.00,,,0.00,,2013-03-13 02:42:00,
2013-03-12 19:52:00,63.0,25.0,30.08,NNE,22,0.0,1.0,23,0.00,,,0.00,,2013-03-13 02:52:00,
2013-03-12 20:12:00,60.0,22.0,30.09,NNE,22,2.0,3.0,23,0.00,,,0.00,,2013-03-13 03:12:00,
2013-03-12 20:21:00,59.0,22.0,30.11,NNE,22,0.0,1.0,24,0.00,,,0.00,,2013-03-13 03:21:00,
2013-03-12 20:31:00,58.0,23.0,30.11,NNE,22,0.0,0.0,26,0.00,,,0.00,,2013-03-13 03:31:00,
2013-03-12 20:41:00,58.0,23.0,30.11,NNE,22,0.0,0.0,26,0.00,,,0.00,,2013-03-13 03:41:00,
2013-03-12 20:52:00,56.0,23.0,30.11,NNE,22,0.0,0.0,27,0.00,,,0.00,,2013-03-13 03:52:00,
2013-03-12 21:02:00,55.0,24.0,30.13,NNE,22,0.0,0.0,30,0.00,,,0.00,,2013-03-13 04:02:00,
2013-03-12 21:12:00,55.0,24.0,30.13,NNE,22,0.0,0.0,30,0.00,,,0.00,,2013-03-13 04:12:00,
2013-03-12 21:22:00,54.0,24.0,30.14,NNE,22,0.0,0.0,31,0.00,,,0.00,,2013-03-13 04:22:00,
2013-03-12 21:31:00,54.0,23.0,30.13,NNE,22,0.0,0.0,30,0.00,,,0.00,,2013-03-13 04:31:00,
2013-03-12 21:42:00,54.0,23.0,30.13,NNE,22,0.0,0.0,30,0.00,,,0.00,,2013-03-13 04:42:00,
2013-03-12 21:53:00,53.0,25.0,30.13,NNE,22,0.0,0.0,33,0.00,,,0.00,,2013-03-13 04:53:00,
2013-03-12 22:01:00,52.0,25.0,30.14,NNE,22,0.0,0.0,35,0.00,,,0.00,,2013-03-13 05:01:00,
2013-03-12 22:11:00,52.0,25.0,30.14,NNE,22,0.0,0.0,35,0.00,,,0.00,,2013-03-13 05:11:00,
2013-03-12 22:22:00,52.0,25.0,30.14,NNE,22,0.0,2.0,35,0.00,,,0.00,,2013-03-13 05:22:00,
2013-03-12 22:31:00,51.0,26.0,30.14,NNE,22,0.0,0.0,38,0.00,,,0.00,,2013-03-13 05:31:00,
2013-03-12 22:42:00,51.0,26.0,30.14,NNE,22,0.0,0.0,38,0.00,,,0.00,,2013-03-13 05:42:00,
2013-03-12 22:52:00,51.0,26.0,30.14,NNE,22,0.0,0.0,38,0.00,,,0.00,,2013-03-13 05:52:00,
2013-03-12 23:01:00,51.0,27.0,30.14,NNE,22,0.0,0.0,39,0.00,,,0.00,,2013-03-13 06:01:00,
2013-03-12 23:11:00,51.0,27.0,30.14,NNE,22,0.0,0.0,39,0.00,,,0.00,,2013-03-13 06:11:00,
2013-03-12 23:22:00,50.0,27.0,30.16,NNE,22,0.0,0.0,40,0.00,,,0.00,,2013-03-13 06:22:00,
2013-03-12 23:31:00,50.0,27.0,30.15,NNE,22,0.0,0.0,40,0.00,,,0.00,,2013-03-13 06:31:00,
2013-03-12 23:42:00,50.0,27.0,30.15,NNE,22,0.0,0.0,40,0.00,,,0.00,,2013-03-13 06:42:00,
2013-03-12 23:52:00,49.0,27.0,30.15,NNE,22,0.0,0.0,43,0.00,,,0.00,,2013-03-13 06:52:00,